�������l�o���
Date,Time,MP-1(��Sv/h),MP-2(��Sv/h),MP-3(��Sv/h),MP-4(��Sv/h),MP-5(��Sv/h),MP-6(��Sv/h),MP-7(��Sv/h),MP-8(��Sv/h),����,����(m/s),���J
2022/10/31,00:00,0.580,0.831,0.524,1.051,0.739,0.337,0.592,0.558,�k��,7.3,��
2022/10/31,00:10,0.582,0.835,0.526,1.051,0.738,0.336,0.594,0.558,���k��,7.8,��
2022/10/31,00:20,0.579,0.832,0.528,1.055,0.737,0.338,0.593,0.559,���k��,7.2,��
2022/10/31,00:30,0.580,0.833,0.525,1.052,0.737,0.336,0.593,0.555,���k��,7.4,��
2022/10/31,00:40,0.580,0.833,0.527,1.052,0.737,0.336,0.592,0.557,���k��,7.2,��
2022/10/31,00:50,0.582,0.832,0.526,1.053,0.738,0.336,0.592,0.558,���k��,7.0,��
2022/10/31,01:00,0.580,0.832,0.527,1.052,0.738,0.336,0.594,0.558,���k��,6.8,��
2022/10/31,01:10,0.580,0.833,0.527,1.053,0.737,0.337,0.592,0.557,���k��,7.3,��
2022/10/31,01:20,0.580,0.832,0.526,1.050,0.737,0.336,0.593,0.557,���k��,7.1,��
2022/10/31,01:30,0.581,0.832,0.526,1.053,0.737,0.337,0.591,0.556,�k��,7.1,��
2022/10/31,01:40,0.579,0.831,0.527,1.049,0.737,0.337,0.592,0.558,�k��,6.8,��
2022/10/31,01:50,0.581,0.833,0.526,1.051,0.737,0.336,0.592,0.556,�k��,6.8,��
2022/10/31,02:00,0.580,0.832,0.526,1.054,0.740,0.336,0.590,0.556,�k��,6.9,��
2022/10/31,02:10,0.580,0.833,0.526,1.052,0.738,0.336,0.591,0.557,�k��,6.7,��
2022/10/31,02:20,0.581,0.834,0.526,1.053,0.738,0.337,0.593,0.558,�k��,7.6,��
2022/10/31,02:30,0.579,0.831,0.525,1.052,0.737,0.336,0.591,0.556,�k��,6.5,��
2022/10/31,02:40,0.580,0.833,0.526,1.053,0.736,0.336,0.592,0.557,�k��,6.5,��
2022/10/31,02:50,0.579,0.833,0.527,1.050,0.736,0.337,0.593,0.557,�k��,6.4,��
2022/10/31,03:00,0.580,0.831,0.526,1.053,0.736,0.337,0.592,0.556,�k��,6.6,��
2022/10/31,03:10,0.581,0.833,0.525,1.053,0.737,0.336,0.591,0.557,�k��,5.9,��
2022/10/31,03:20,0.579,0.832,0.524,1.052,0.738,0.336,0.592,0.558,�k��,5.4,��
2022/10/31,03:30,0.581,0.832,0.527,1.053,0.738,0.337,0.592,0.558,�k��,4.8,��
2022/10/31,03:40,0.578,0.832,0.526,1.051,0.738,0.337,0.592,0.557,�k��,5.6,��
2022/10/31,03:50,0.580,0.834,0.526,1.052,0.736,0.337,0.592,0.556,�k��,6.0,��
2022/10/31,04:00,0.579,0.833,0.525,1.053,0.737,0.336,0.593,0.558,�k��,5.9,��
2022/10/31,04:10,0.579,0.832,0.526,1.051,0.738,0.335,0.591,0.556,�k��,6.0,��
2022/10/31,04:20,0.579,0.831,0.526,1.051,0.737,0.335,0.592,0.557,�k��,6.7,��
2022/10/31,04:30,0.579,0.831,0.526,1.051,0.738,0.336,0.591,0.557,�k��,7.5,��
2022/10/31,04:40,0.580,0.831,0.525,1.053,0.736,0.337,0.592,0.557,�k��,7.4,��
2022/10/31,04:50,0.579,0.831,0.527,1.051,0.737,0.336,0.591,0.556,�k��,7.9,��
2022/10/31,05:00,0.579,0.832,0.526,1.049,0.739,0.336,0.593,0.558,�k��,7.4,��
2022/10/31,05:10,0.579,0.831,0.526,1.053,0.738,0.336,0.591,0.557,�k��,7.5,��
2022/10/31,05:20,0.580,0.831,0.527,1.053,0.736,0.336,0.591,0.558,�k��,7.2,��
2022/10/31,05:30,0.579,0.831,0.527,1.049,0.737,0.336,0.592,0.556,�k��,6.9,��
2022/10/31,05:40,0.578,0.832,0.525,1.052,0.739,0.335,0.591,0.558,�k��,6.6,��
2022/10/31,05:50,0.579,0.831,0.525,1.053,0.735,0.337,0.593,0.556,�k��,6.7,��
2022/10/31,06:00,0.578,0.833,0.524,1.052,0.735,0.336,0.592,0.555,�k��,6.7,��
2022/10/31,06:10,0.578,0.830,0.527,1.053,0.737,0.337,0.590,0.555,�k��,6.9,��
2022/10/31,06:20,0.578,0.832,0.523,1.055,0.736,0.335,0.592,0.557,�k��,6.9,��
2022/10/31,06:30,0.580,0.832,0.525,1.052,0.735,0.336,0.591,0.556,�k��,7.7,��
2022/10/31,06:40,0.579,0.832,0.525,1.054,0.738,0.335,0.591,0.557,�k�k��,6.7,��
2022/10/31,06:50,0.579,0.831,0.525,1.052,0.736,0.336,0.590,0.556,�k�k��,6.7,��
2022/10/31,07:00,0.580,0.834,0.523,1.052,0.737,0.336,0.592,0.556,�k��,6.2,��
2022/10/31,07:10,0.578,0.833,0.527,1.052,0.738,0.337,0.594,0.558,�k��,6.1,��
2022/10/31,07:20,0.577,0.833,0.525,1.053,0.736,0.335,0.592,0.556,�k�k��,5.9,��
2022/10/31,07:30,0.578,0.833,0.526,1.051,0.737,0.336,0.594,0.558,�k�k��,4.8,��
2022/10/31,07:40,0.580,0.831,0.525,1.054,0.737,0.336,0.592,0.558,�k�k��,6.2,��
2022/10/31,07:50,0.580,0.831,0.526,1.054,0.736,0.336,0.592,0.557,�k�k��,6.2,��
2022/10/31,08:00,0.580,0.832,0.526,1.053,0.737,0.335,0.595,0.557,�k�k��,5.3,��
2022/10/31,08:10,0.579,0.830,0.524,1.055,0.738,0.335,0.592,0.557,�k�k��,5.3,��
2022/10/31,08:20,0.581,0.829,0.524,1.053,0.737,0.335,0.592,0.557,�k�k��,5.0,��
2022/10/31,08:30,0.580,0.829,0.526,1.053,0.737,0.334,0.592,0.556,�k�k��,4.9,��
2022/10/31,08:40,0.581,0.829,0.526,1.054,0.738,0.335,0.592,0.558,�k,3.6,��
2022/10/31,08:50,0.582,0.829,0.524,1.054,0.737,0.334,0.590,0.557,�k,5.6,��
2022/10/31,09:00,0.580,0.827,0.525,1.052,0.738,0.336,0.591,0.559,�k,5.7,��
2022/10/31,09:10,0.579,0.828,0.525,1.052,0.739,0.335,0.591,0.557,�k,6.6,��
2022/10/31,09:20,0.579,0.828,0.526,1.052,0.738,0.337,0.590,0.559,�k�k��,6.9,��
2022/10/31,09:30,0.580,0.829,0.526,1.052,0.736,0.337,0.591,0.558,�k,6.0,��
2022/10/31,09:40,0.581,0.828,0.525,1.052,0.736,0.336,0.591,0.559,�k,6.4,��
2022/10/31,09:50,0.578,0.827,0.524,1.051,0.738,0.335,0.589,0.560,�k�k��,6.9,��
2022/10/31,10:00,0.579,0.827,0.525,1.051,0.736,0.336,0.592,0.558,�k,7.8,��
2022/10/31,10:10,0.578,0.830,0.524,1.049,0.737,0.335,0.590,0.558,�k�k��,7.4,��
2022/10/31,10:20,0.579,0.832,0.523,1.052,0.736,0.334,0.590,0.558,�k�k��,6.1,��
2022/10/31,10:30,0.579,0.828,0.523,1.054,0.735,0.336,0.589,0.558,�k,5.6,��
2022/10/31,10:40,0.579,0.829,0.522,1.053,0.738,0.334,0.589,0.558,�k�k��,6.8,��
2022/10/31,10:50,0.579,0.832,0.523,1.053,0.737,0.335,0.590,0.557,�k,7.0,��
2022/10/31,11:00,0.579,0.830,0.522,1.051,0.736,0.334,0.591,0.559,�k�k��,6.9,��
2022/10/31,11:10,0.580,0.828,0.522,1.051,0.738,0.334,0.589,0.558,�k,7.1,��
2022/10/31,11:20,0.580,0.832,0.521,1.056,0.735,0.335,0.590,0.559,�k�k��,6.8,��
2022/10/31,11:30,0.580,0.828,0.522,1.054,0.736,0.335,0.591,0.557,�k,6.9,��
2022/10/31,11:40,0.581,0.831,0.524,1.055,0.738,0.334,0.589,0.557,�k,5.5,��
2022/10/31,11:50,0.581,0.829,0.523,1.054,0.736,0.335,0.590,0.558,�k,6.1,��
2022/10/31,12:00,0.580,0.831,0.523,1.054,0.739,0.335,0.591,0.560,�k,5.2,��
2022/10/31,12:10,0.580,0.835,0.525,1.051,0.736,0.335,0.589,0.557,�k,5.9,��
2022/10/31,12:20,0.582,0.832,0.526,1.054,0.738,0.336,0.591,0.557,�k,5.9,��
2022/10/31,12:30,0.580,0.833,0.525,1.054,0.737,0.337,0.592,0.556,�k,5.5,��
2022/10/31,12:40,0.578,0.832,0.524,1.053,0.737,0.337,0.589,0.556,�k,5.5,��
2022/10/31,12:50,0.581,0.831,0.525,1.053,0.737,0.337,0.590,0.555,�k,5.5,��
2022/10/31,13:00,0.581,0.830,0.525,1.054,0.738,0.336,0.589,0.555,�k,5.6,��
2022/10/31,13:10,0.580,0.833,0.523,1.052,0.736,0.336,0.590,0.557,�k,5.1,��
2022/10/31,13:20,0.579,0.831,0.524,1.054,0.739,0.336,0.590,0.557,�k,5.6,��
2022/10/31,13:30,0.581,0.830,0.524,1.051,0.738,0.336,0.590,0.556,�k,6.6,��
2022/10/31,13:40,0.580,0.831,0.525,1.053,0.736,0.335,0.589,0.555,�k,6.2,��
2022/10/31,13:50,0.580,0.831,0.524,1.053,0.739,0.336,0.590,0.556,�k�k��,5.9,��
2022/10/31,14:00,0.581,0.830,0.524,1.052,0.739,0.334,0.591,0.555,�k,5.1,��
2022/10/31,14:10,0.580,0.830,0.525,1.054,0.739,0.334,0.590,0.555,�k,5.2,��
2022/10/31,14:20,0.582,0.828,0.525,1.054,0.738,0.335,0.589,0.554,�k,4.5,��
2022/10/31,14:30,0.580,0.832,0.524,1.054,0.740,0.335,0.589,0.554,�k�k��,5.7,��
2022/10/31,14:40,0.581,0.830,0.524,1.054,0.739,0.335,0.588,0.555,�k,6.2,��
2022/10/31,14:50,0.580,0.831,0.524,1.055,0.738,0.334,0.589,0.555,�k,5.7,��
2022/10/31,15:00,0.580,0.832,0.524,1.053,0.738,0.335,0.590,0.557,�k,4.9,��
2022/10/31,15:10,0.579,0.832,0.525,1.053,0.740,0.336,0.588,0.556,�k,4.5,��
2022/10/31,15:20,0.580,0.831,0.526,1.053,0.740,0.336,0.590,0.556,�k�k��,4.8,��
2022/10/31,15:30,0.578,0.832,0.523,1.053,0.739,0.337,0.591,0.557,�k,5.1,��
2022/10/31,15:40,0.580,0.834,0.525,1.053,0.737,0.336,0.591,0.556,�k,4.7,��
2022/10/31,15:50,0.580,0.835,0.527,1.053,0.739,0.337,0.591,0.559,�k�k��,5.3,�L
2022/10/31,16:00,0.580,0.834,0.524,1.056,0.737,0.336,0.590,0.559,�k�k��,5.9,��
2022/10/31,16:10,0.579,0.834,0.526,1.055,0.739,0.337,0.590,0.559,�k�k��,5.9,��
2022/10/31,16:20,0.581,0.833,0.525,1.056,0.738,0.336,0.589,0.556,�k�k��,5.1,��
2022/10/31,16:30,0.581,0.831,0.523,1.054,0.738,0.336,0.591,0.558,�k�k��,5.7,��
2022/10/31,16:40,0.581,0.834,0.523,1.054,0.740,0.336,0.590,0.558,�k�k��,4.6,��
2022/10/31,16:50,0.580,0.834,0.524,1.055,0.737,0.338,0.589,0.556,�k�k��,5.7,��
2022/10/31,17:00,0.579,0.836,0.527,1.054,0.738,0.337,0.590,0.559,�k�k��,5.1,��
2022/10/31,17:10,0.578,0.836,0.526,1.055,0.737,0.337,0.589,0.558,�k�k��,5.2,��
2022/10/31,17:20,0.580,0.835,0.525,1.051,0.739,0.338,0.589,0.559,�k�k��,4.9,��
2022/10/31,17:30,0.582,0.836,0.526,1.053,0.740,0.338,0.590,0.558,�k�k��,3.8,��
2022/10/31,17:40,0.582,0.836,0.525,1.054,0.740,0.337,0.590,0.558,�k�k��,4.6,��
2022/10/31,17:50,0.581,0.835,0.526,1.055,0.739,0.336,0.590,0.557,�k�k��,4.5,��
2022/10/31,18:00,0.582,0.835,0.527,1.053,0.740,0.337,0.591,0.559,�k,4.5,��
2022/10/31,18:10,0.582,0.836,0.527,1.054,0.742,0.336,0.591,0.558,�k,4.1,��
2022/10/31,18:20,0.582,0.837,0.527,1.054,0.739,0.336,0.589,0.557,�k,3.1,��
2022/10/31,18:30,0.582,0.835,0.527,1.057,0.741,0.336,0.591,0.559,�k�k��,3.3,��
2022/10/31,18:40,0.582,0.835,0.525,1.055,0.740,0.337,0.590,0.557,�k�k��,4.5,��
2022/10/31,18:50,0.581,0.835,0.525,1.054,0.741,0.337,0.591,0.558,�k�k��,4.3,��
2022/10/31,19:00,0.581,0.834,0.527,1.053,0.741,0.336,0.590,0.556,�k,3.7,��
2022/10/31,19:10,0.581,0.835,0.526,1.053,0.742,0.335,0.590,0.558,�k,4.9,��
2022/10/31,19:20,0.580,0.836,0.526,1.054,0.742,0.336,0.591,0.557,�k,4.1,��
2022/10/31,19:30,0.580,0.836,0.526,1.055,0.740,0.337,0.592,0.558,�k,4.5,��
2022/10/31,19:40,0.581,0.836,0.526,1.053,0.740,0.336,0.591,0.558,�k,4.9,��
2022/10/31,19:50,0.582,0.835,0.527,1.054,0.741,0.337,0.591,0.557,�k,4.1,��
2022/10/31,20:00,0.581,0.835,0.526,1.056,0.741,0.336,0.592,0.557,�k�k��,4.2,��
2022/10/31,20:10,0.580,0.834,0.528,1.056,0.739,0.336,0.590,0.557,�k�k��,4.2,��
2022/10/31,20:20,0.580,0.837,0.526,1.054,0.739,0.337,0.592,0.557,�k�k��,4.4,��
2022/10/31,20:30,0.581,0.835,0.526,1.053,0.739,0.336,0.590,0.557,�k�k��,4.7,��
2022/10/31,20:40,0.581,0.833,0.527,1.053,0.739,0.336,0.593,0.557,�k�k��,4.1,��
2022/10/31,20:50,0.581,0.833,0.526,1.055,0.741,0.337,0.593,0.558,�k�k��,4.6,��
2022/10/31,21:00,0.581,0.835,0.527,1.053,0.739,0.335,0.590,0.557,�k�k��,4.2,��
2022/10/31,21:10,0.581,0.837,0.526,1.054,0.738,0.334,0.589,0.557,�k�k��,4.4,��
2022/10/31,21:20,0.581,0.836,0.526,1.052,0.740,0.337,0.592,0.557,�k�k��,4.6,��
2022/10/31,21:30,0.581,0.833,0.526,1.054,0.740,0.337,0.591,0.556,�k�k��,4.5,��
2022/10/31,21:40,0.580,0.832,0.526,1.054,0.741,0.336,0.591,0.557,�k�k��,4.5,��
2022/10/31,21:50,0.579,0.836,0.526,1.055,0.739,0.336,0.593,0.557,�k�k��,4.5,��
2022/10/31,22:00,0.581,0.833,0.525,1.055,0.741,0.337,0.592,0.558,�k�k��,4.5,��
2022/10/31,22:10,0.581,0.837,0.527,1.056,0.739,0.335,0.593,0.557,�k�k��,4.0,��
2022/10/31,22:20,0.581,0.836,0.525,1.053,0.740,0.336,0.592,0.557,�k��,4.5,��
2022/10/31,22:30,0.581,0.833,0.526,1.053,0.741,0.337,0.592,0.556,�k�k��,4.3,��
2022/10/31,22:40,0.581,0.834,0.525,1.054,0.739,0.336,0.592,0.556,�k�k��,4.0,��
2022/10/31,22:50,0.581,0.835,0.526,1.053,0.742,0.337,0.592,0.558,�k��,4.8,��
2022/10/31,23:00,0.580,0.832,0.525,1.055,0.739,0.335,0.592,0.556,�k�k��,4.3,��
2022/10/31,23:10,0.579,0.836,0.525,1.055,0.741,0.336,0.591,0.558,�k��,4.4,��
2022/10/31,23:20,0.581,0.834,0.526,1.056,0.740,0.336,0.593,0.556,�k��,4.1,��
2022/10/31,23:30,0.581,0.836,0.525,1.056,0.739,0.336,0.591,0.558,�k��,4.5,��
2022/10/31,23:40,0.581,0.834,0.526,1.056,0.740,0.336,0.592,0.556,�k�k��,4.4,��
2022/10/31,23:50,0.580,0.835,0.524,1.053,0.739,0.336,0.593,0.558,�k��,4.7,��
